SL-4 R/B (43239 NORAD) Tracking and Keplerian Element Data

This shows tracking and keplerian element data for the satellite.

Feedback or suggestion? Click here.




ElementValue
Catalog43239
NameSL-4 R/B
Epoch Orbit52
Epoch Day83.9178791
Epoch Year2018
RAAN77.5028
Inclination51.6289
Eccentricity0.0006309
Argument of Perigee101.3398
Mean Anonmoly261.7596
Mean Motion16.46548415
Decay Rate0.10120179
L11 43239U 18026B 18083.91787910 .10120179 12561-4 21030-3 0 9999
L22 43239 51.6289 77.5028 0006309 101.3398 261.7596 16.46548415 523



Live tracking and technical data element details for SL-4 R/B (NORAD 43239). SL-4 R/B can be tracked NOW for your location showing map with azimuth and elevation plus other details from your city location.







IsCatalogInMostPopularTable: catalog: 43239, numindb: 526
Update: records affected: 1



GetName: 43239 SL-4 R/B

Hit Count: updated at: Thu, 15 May 2025 19:21:51 GMT